EHI
42 39 37 25 9 3 1 0 0 0 0 0 0 0 0 0 0 0 0 0 0 0 0 0 0 0 0 0 0 0 0 0 0 0 0 0 0 0 0 0 0 0 0
47 43 41 30 13 4 2 1 0 0 0 0 0 0 0 0 0 0 0 0 0 0 0 0 0 0 0 0 0 0 0 0 0 0 0 0 0 0 0 0 0 0 0
50 41 37 32 17 6 3 2 1 0 0 0 0 0 0 0 0 0 0 0 0 0 0 0 0 0 0 0 0 0 0 0 0 0 0 0 0 0 0 0 0 0 0
42 35 33 31 19 8 4 3 1 1 0 0 0 0 0 0 0 0 0 0 0 0 0 0 0 0 0 0 0 0 0 0 0 0 0 0 0 0 0 0 0 0 0
35 35 37 32 20 10 6 4 3 2 1 0 0 0 0 0 0 0 0 0 0 0 0 0 0 0 0 0 0 0 0 0 0 0 0 0 0 0 0 0 0 0 0
40 41 41 35 23 11 7 5 4 4 2 1 1 1 0 0 0 0 0 0 0 0 0 0 0 0 0 0 0 0 0 1 1 1 1 0 0 0 0 0 0 0 0
51 45 41 37 25 13 7 5 5 6 5 3 2 1 0 0 0 0 0 0 0 0 0 0 0 0 0 0 0 0 2 3 3 2 2 1 0 0 0 0 0 0 0
58 48 39 34 23 13 8 5 5 5 5 4 2 1 0 0 0 0 0 0 0 0 0 0 0 0 0 0 0 1 4 4 2 1 2 1 1 1 1 0 0 0 0
59 47 34 25 17 11 8 6 4 4 4 2 1 0 0 0 0 1 1 1 0 0 0 0 0 0 0 0 1 2 4 4 1 0 0 1 2 2 1 0 0 0 0
57 43 27 19 14 9 7 6 4 3 2 1 0 0 0 0 0 1 2 2 1 0 0 0 0 0 0 0 1 2 3 2 1 0 0 1 2 3 1 0 0 0 0
58 42 26 20 14 9 7 6 4 2 1 0 0 0 0 0 0 1 3 4 2 1 0 0 0 0 0 0 0 1 2 2 1 1 1 1 3 3 2 1 0 0 0
65 48 31 22 14 10 9 8 5 3 2 1 1 0 0 0 0 1 3 4 2 1 0 0 0 0 0 0 0 1 2 1 2 2 2 2 3 3 2 1 1 1 1
68 55 39 27 20 17 15 11 8 6 4 2 2 1 0 0 1 2 2 2 1 0 0 1 1 0 0 0 0 0 1 1 2 3 2 2 3 2 1 1 1 2 2
66 58 48 39 34 35 27 16 11 9 5 5 6 4 1 1 2 3 3 1 0 0 1 2 2 1 0 0 0 0 1 1 1 1 1 1 1 1 1 1 1 2 3
66 63 61 57 55 57 47 29 19 15 12 13 13 8 4 5 6 7 7 4 3 3 4 3 2 1 1 1 1 1 1 1 1 1 0 0 1 0 1 1 1 2 2
66 68 71 72 72 71 60 42 30 25 25 25 21 13 8 10 14 14 9 6 6 8 9 5 2 2 2 2 1 1 1 1 1 2 2 1 1 1 2 3 3 2 1
68 70 71 71 73 72 61 47 37 33 32 33 30 20 12 14 19 16 8 5 7 11 12 6 2 2 1 1 1 1 1 2 2 4 4 3 1 1 3 5 4 2 1
71 72 67 64 66 67 60 51 43 38 36 37 35 26 16 15 17 12 8 8 8 10 9 6 3 2 1 0 0 1 1 1 2 4 5 4 3 2 3 4 3 2 1
73 71 66 64 66 67 61 57 54 48 43 40 37 29 20 17 15 12 11 13 10 8 7 6 5 4 2 1 0 1 1 1 1 3 4 4 3 3 3 2 2 2 2
74 72 69 68 71 70 64 61 59 53 47 42 39 34 25 21 17 14 15 16 12 8 7 6 6 5 3 1 0 1 1 1 2 3 3 2 2 3 4 4 3 2 2
77 76 73 70 70 70 67 62 57 53 48 44 43 39 31 25 20 16 17 18 14 11 8 7 5 3 1 0 0 1 1 2 3 3 3 2 1 1 4 5 3 1 1
77 75 72 68 66 67 64 58 54 53 49 44 44 41 33 27 23 18 18 18 15 14 11 8 5 3 1 0 0 1 1 1 1 2 2 3 2 1 3 4 4 2 1
70 67 65 65 64 62 58 51 47 48 45 40 41 38 31 27 24 20 20 18 15 14 13 10 6 3 1 0 0 0 0 0 0 0 1 2 2 1 2 3 3 2 1
59 58 60 63 62 58 51 43 39 38 36 36 37 36 31 28 25 23 20 19 14 12 13 11 7 4 1 0 0 0 0 0 0 0 0 1 1 1 1 1 1 1 1
52 52 56 61 60 55 48 41 37 35 35 36 37 38 36 31 26 21 19 18 14 12 15 14 8 4 1 1 1 1 0 0 0 0 0 0 0 0 0 0 0 1 2
50 49 52 58 59 55 48 41 37 37 38 38 39 41 39 32 25 19 17 17 14 14 17 16 9 3 1 2 2 2 1 0 0 0 0 0 0 0 0 0 0 1 1
Wind_Speed
18 18 18 17 16 16 15 15 14 14 14 14 14 15 15 15 15 15 15 15 15 15 15 14 14 14 14 14 14 14 14 14 14 14 15 14 13 11 11 12 14 12 15
22 19 18 17 16 16 15 15 14 14 14 14 14 14 14 14 14 14 14 14 14 15 14 14 14 14 14 14 13 13 12 12 12 13 14 13 13 12 12 12 14 11 14
22 19 18 17 17 16 15 15 14 14 14 14 13 13 13 14 14 14 14 14 14 14 14 14 14 14 13 13 12 11 10 10 10 10 11 10 11 13 14 15 16 15 14
21 18 17 18 17 16 15 15 14 14 14 13 13 13 13 13 13 14 14 14 14 14 14 14 14 13 13 12 10 8 7 7 6 6 4 8 9 13 13 14 15 14 13
20 18 19 19 18 17 15 14 14 14 14 13 13 12 12 13 13 13 13 13 14 14 14 14 13 13 12 10 8 6 4 3 2 3 7 9 8 11 13 13 14 13 13
20 19 19 18 18 17 16 15 14 14 13 13 12 12 12 12 13 13 13 13 13 13 13 13 12 12 10 9 6 3 2 1 2 5 8 9 8 11 12 13 13 13 12
21 19 19 18 18 17 16 15 14 14 13 12 12 12 12 12 12 13 13 13 13 12 12 11 11 10 9 7 4 2 3 4 1 7 9 9 9 11 12 12 12 12 12
21 20 18 18 18 16 16 15 14 14 13 12 12 12 12 11 11 12 12 12 12 11 11 10 10 9 7 5 2 1 4 6 5 9 11 9 10 11 11 11 11 11 12
21 19 16 16 15 16 15 15 14 13 13 12 12 12 12 12 11 12 12 11 11 11 10 9 9 8 6 4 1 2 4 5 2 6 11 8 10 11 11 11 11 11 11
19 18 16 15 13 13 13 14 14 14 13 12 12 11 12 12 11 11 11 10 10 10 9 8 7 6 5 3 2 3 4 4 3 8 7 9 12 12 11 11 11 11 10
17 15 16 15 13 13 13 14 13 13 12 12 10 11 10 8 9 8 11 10 9 8 7 6 5 5 5 4 4 4 4 1 6 7 6 11 12 12 11 11 11 10 10
16 16 14 14 13 13 11 10 9 9 9 8 7 8 6 4 5 9 11 10 9 8 6 6 5 5 5 4 4 4 2 1 5 7 7 12 11 11 11 10 10 10 9
14 13 14 13 10 11 9 8 6 5 6 6 8 6 4 4 5 7 5 6 5 7 5 5 5 4 3 2 2 2 1 2 5 7 8 10 10 11 10 9 9 9 9
13 13 13 12 8 8 9 7 6 6 5 5 6 5 4 2 3 4 3 5 4 3 3 3 2 1 1 1 1 1 1 3 5 6 7 11 9 10 10 9 9 9 8
12 12 11 10 8 7 7 5 6 6 6 6 5 3 3 3 3 3 2 2 2 2 2 1 1 2 2 1 2 3 4 5 5 7 6 10 10 9 9 9 9 9 8
14 13 11 11 9 7 6 3 3 5 4 5 4 4 3 3 3 3 2 1 1 2 1 1 2 2 1 1 1 2 2 3 4 6 7 7 9 9 9 9 9 8 8
14 13 12 10 9 7 7 5 4 4 5 4 4 4 3 3 4 3 2 2 1 2 2 1 1 1 2 2 1 2 1 2 2 4 6 5 6 8 9 9 9 8 8
13 13 12 12 11 8 6 4 3 4 5 4 4 4 3 4 4 3 3 2 2 2 2 2 0 1 1 1 1 1 1 1 1 3 4 4 5 5 7 10 9 9 9
13 13 12 11 12 10 7 5 4 4 4 4 4 4 4 4 4 2 2 2 2 2 1 2 2 1 0 0 2 2 1 2 1 2 3 4 4 5 5 8 9 8 8
13 12 11 10 11 10 7 5 3 4 4 3 4 4 5 4 4 2 3 3 1 1 1 2 2 2 0 1 1 2 1 2 1 1 2 3 3 5 5 6 5 6 8
12 12 11 11 10 8 7 7 6 5 4 4 4 6 6 4 4 2 2 3 1 2 2 2 2 2 2 1 0 1 1 2 2 2 2 2 3 3 5 6 5 3 4
13 12 11 11 11 10 7 6 5 5 4 4 4 5 6 5 5 5 3 3 3 2 2 1 1 1 2 2 1 1 1 1 1 3 3 3 3 3 4 6 5 4 3
14 14 12 12 12 10 9 6 5 4 3 4 5 4 5 5 4 2 4 2 3 3 3 2 2 2 1 1 1 0 1 1 2 1 1 2 2 2 2 4 4 4 5
14 13 12 11 11 10 10 9 10 8 6 6 5 5 5 5 5 4 4 3 2 2 4 4 3 2 1 1 2 1 1 1 1 2 0 2 3 3 2 3 4 4 5
14 13 12 11 11 10 10 9 9 7 6 5 6 7 6 5 5 5 4 3 2 2 3 2 2 0 1 2 1 2 2 2 2 2 3 3 2 3 3 3 3 3 4
13 13 13 12 10 10 10 10 8 8 7 7 7 7 6 4 4 5 5 4 3 2 3 3 2 2 0 1 2 1 1 1 2 2 2 3 3 3 3 2 2 3 3
Wind_Direction
123 127 128 126 125 123 120 116 111 106 102 98 95 92 90 90 89 90 91 90 90 91 92 90 88 87 86 85 86 87 89 91 93 95 94 91 87 87 91 101 99 94 98
124 128 128 127 126 125 121 117 114 110 106 102 98 96 95 94 93 93 93 93 92 92 92 91 90 90 91 91 91 92 94 100 103 106 103 92 83 81 83 85 89 98 100
123 129 130 128 127 125 123 120 117 113 109 105 101 99 98 97 96 95 95 95 95 95 94 93 92 91 93 95 97 99 103 107 115 124 121 102 90 84 86 90 96 99 99
127 134 130 130 128 127 124 122 119 115 111 108 104 103 101 100 98 97 97 97 97 96 95 93 92 91 92 96 101 105 109 113 125 140 117 99 96 92 92 95 97 98 99
131 130 130 134 131 129 127 124 122 119 116 112 109 106 104 102 100 100 100 99 98 98 97 95 94 93 93 95 99 103 109 112 145 125 93 91 91 99 97 99 99 99 100
131 129 133 135 133 132 130 128 126 123 119 116 113 111 109 107 105 103 101 99 99 99 99 98 97 97 96 96 94 86 55 359 301 100 101 101 99 101 101 102 102 101 100
130 129 136 137 136 135 134 131 128 125 122 119 116 115 113 110 109 107 104 103 102 100 100 100 101 101 99 98 93 48 350 331 61 100 98 96 101 104 102 102 103 103 102
129 131 135 138 138 137 136 134 132 130 128 124 121 118 117 115 113 110 109 106 104 104 103 103 103 105 106 107 106 338 334 327 86 105 105 102 110 107 105 106 105 106 104
130 133 140 142 141 141 139 138 136 135 133 129 126 124 123 122 120 118 114 111 108 107 106 106 107 109 112 121 165 277 310 323 52 108 110 112 116 112 109 111 110 108 107
131 138 144 145 146 148 145 144 141 140 137 135 135 136 134 133 131 130 124 116 115 114 114 115 118 123 131 153 209 267 303 318 98 100 104 118 121 116 114 115 114 110 109
136 142 147 147 154 154 149 146 147 146 144 144 148 152 153 156 147 150 122 127 126 126 129 135 143 150 163 188 221 260 287 274 96 98 101 123 126 122 121 120 119 117 114
143 149 149 151 160 158 149 146 155 157 155 169 157 170 186 169 139 130 132 138 143 145 151 168 181 189 207 200 202 234 260 167 106 105 115 129 129 127 127 128 128 125 122
148 152 149 155 161 153 138 157 161 151 161 175 159 178 175 142 135 132 148 149 163 173 183 176 201 216 198 187 165 187 231 97 103 108 124 131 131 132 134 135 134 132 129
156 157 150 153 155 142 144 160 155 148 168 163 158 180 154 159 144 140 147 166 171 178 175 172 203 175 120 98 79 100 85 87 101 113 133 137 138 139 141 143 142 139 137
157 154 148 151 149 140 138 159 155 149 165 148 154 171 151 154 135 126 126 141 160 139 154 184 137 103 73 55 22 51 62 90 117 119 131 146 147 149 151 153 152 149 147
163 158 150 153 146 137 137 151 139 142 137 141 152 157 164 131 113 114 118 108 112 114 108 120 120 121 115 75 43 49 38 74 107 124 136 149 154 157 159 159 161 161 159
164 157 152 154 147 145 149 166 149 135 142 140 137 143 157 133 129 137 142 185 142 113 121 114 94 131 170 158 144 107 79 67 105 120 138 150 160 168 168 166 166 170 171
162 156 160 163 154 155 157 172 152 147 146 137 136 146 153 135 146 155 147 161 144 137 152 140 189 156 86 103 118 109 111 114 135 144 151 152 155 159 173 175 173 176 182
158 157 164 159 156 160 163 174 161 143 140 141 142 148 151 158 152 156 133 123 161 147 160 175 130 97 106 147 174 167 168 139 138 155 140 145 148 154 163 176 179 181 187
157 159 164 159 156 158 161 165 162 153 152 152 142 144 153 162 154 160 138 142 185 133 129 101 113 125 183 236 238 137 139 128 127 121 168 149 153 167 162 162 171 186 190
159 161 165 164 157 157 164 171 169 166 165 159 155 154 163 165 148 181 146 152 178 131 127 143 148 171 208 188 158 142 136 145 153 166 171 144 155 164 153 154 168 169 175
163 164 166 167 162 167 171 171 168 160 165 162 155 152 162 162 161 178 161 168 147 132 138 146 139 177 222 166 180 159 139 129 203 165 161 161 158 154 152 154 156 157 163
171 171 174 171 166 171 169 166 162 148 156 156 149 158 165 163 164 168 154 150 151 168 159 173 179 199 212 180 183 127 138 150 170 126 151 126 122 127 136 142 149 147 147
174 174 170 169 168 171 172 174 171 170 174 168 159 157 162 167 169 162 155 147 169 157 146 190 175 205 203 225 172 163 154 126 145 137 170 143 146 134 126 132 128 135 131
176 175 171 169 172 174 177 175 176 173 168 158 153 155 162 168 167 166 158 154 165 159 138 123 114 188 235 262 225 178 175 175 200 159 163 166 161 149 153 138 135 135 134
174 173 170 169 173 175 176 176 181 173 167 161 161 162 167 165 170 170 160 158 168 152 134 131 139 172 287 350 352 335 169 186 199 169 155 166 164 154 137 124 138 137 145